CCM55FH LFML-LFKJ

Flight info

Callsign CCM55FH
Flight time 0h 44m
Altitude 23000
Route TINOT Z154 RUBAS
Aircraft A320/M-SDE3FGHIRWY/LB1

Departure

Time 2026-04-28 20:42
Airport Marseille Provence Airport (LFML)

Arrival

Time 2026-04-28 21:27
Airport Ajaccio Napoléon Bonaparte airport (LFKJ)
Time Latitude Longitude Altitude Speed Heading
2026-04-28 20:18 43.44054 5.22081 38 ft 0 kts 51°
2026-04-28 20:33 43.44046 5.22068 38 ft 4 kts 43°
2026-04-28 20:34 43.44024 5.22048 36 ft 4 kts 18°
2026-04-28 20:34 43.43998 5.22042 39 ft 4 kts 351°
2026-04-28 20:34 43.43975 5.22054 38 ft 2 kts 316°
2026-04-28 20:34 43.43974 5.22056 39 ft 0 kts 314°
2026-04-28 20:37 43.43979 5.22048 37 ft 6 kts 314°
2026-04-28 20:37 43.43988 5.21976 38 ft 8 kts 239°
2026-04-28 20:37 43.43945 5.21917 38 ft 12 kts 224°
2026-04-28 20:37 43.43898 5.21825 38 ft 11 kts 274°
2026-04-28 20:38 43.43946 5.21748 36 ft 11 kts 312°
2026-04-28 20:38 43.43978 5.21658 34 ft 11 kts 264°
2026-04-28 20:38 43.43937 5.21578 34 ft 10 kts 227°
2026-04-28 20:38 43.43939 5.21460 31 ft 17 kts 313°
2026-04-28 20:39 43.44028 5.21333 29 ft 20 kts 314°
2026-04-28 20:39 43.44130 5.21188 25 ft 19 kts 314°
2026-04-28 20:39 43.44231 5.21043 21 ft 23 kts 314°
2026-04-28 20:39 43.44324 5.20853 18 ft 25 kts 301°
2026-04-28 20:40 43.44434 5.20685 18 ft 19 kts 314°
2026-04-28 20:40 43.44529 5.20548 18 ft 21 kts 314°
2026-04-28 20:40 43.44618 5.20421 17 ft 13 kts 315°
2026-04-28 20:40 43.44669 5.20332 17 ft 11 kts 284°
2026-04-28 20:41 43.44639 5.20248 17 ft 9 kts 222°
2026-04-28 20:41 43.44582 5.20213 18 ft 8 kts 166°
2026-04-28 20:41 43.44546 5.20256 19 ft 5 kts 135°
2026-04-28 20:41 43.44511 5.20303 20 ft 19 kts 135°
2026-04-28 20:42 43.44226 5.20711 18 ft 95 kts 134°
2026-04-28 20:42 43.43632 5.21557 47 ft 147 kts 134°
2026-04-28 20:42 43.42876 5.22581 542 ft 153 kts 137°
2026-04-28 20:42 43.42005 5.23405 1215 ft 151 kts 152°
2026-04-28 20:43 43.41088 5.24008 1989 ft 133 kts 153°
2026-04-28 20:43 43.40235 5.24698 2215 ft 156 kts 147°
2026-04-28 20:43 43.39248 5.25588 2315 ft 189 kts 146°
2026-04-28 20:43 43.38056 5.26684 2497 ft 219 kts 146°
2026-04-28 20:44 43.36718 5.27905 2915 ft 243 kts 147°
2026-04-28 20:44 43.35261 5.29211 3603 ft 254 kts 147°
2026-04-28 20:44 43.33760 5.30540 4475 ft 258 kts 147°
2026-04-28 20:44 43.32240 5.31884 5341 ft 262 kts 149°
2026-04-28 20:45 43.30532 5.32765 6155 ft 266 kts 172°
2026-04-28 20:45 43.28677 5.32888 6990 ft 268 kts 179°
2026-04-28 20:45 43.26796 5.32930 7814 ft 271 kts 179°
2026-04-28 20:45 43.24897 5.32965 8616 ft 275 kts 179°
2026-04-28 20:46 43.22973 5.33005 9399 ft 278 kts 179°
2026-04-28 20:46 43.21027 5.33048 10166 ft 281 kts 179°
2026-04-28 20:46 43.19005 5.33095 10516 ft 302 kts 179°
2026-04-28 20:46 43.16822 5.33144 10747 ft 324 kts 179°
2026-04-28 20:47 43.14527 5.33197 11277 ft 334 kts 179°
2026-04-28 20:47 43.12190 5.33252 11956 ft 338 kts 179°
2026-04-28 20:47 43.09853 5.33310 12636 ft 342 kts 179°
2026-04-28 20:47 43.07433 5.33369 13321 ft 345 kts 179°
2026-04-28 20:48 43.05058 5.33424 13962 ft 348 kts 179°
2026-04-28 20:48 43.02620 5.33475 14600 ft 351 kts 179°
2026-04-28 20:48 43.00159 5.33504 15220 ft 355 kts 180°
2026-04-28 20:48 42.97676 5.33418 15819 ft 358 kts 182°
2026-04-28 20:49 42.95180 5.33249 16418 ft 361 kts 183°
2026-04-28 20:49 42.92661 5.33046 16995 ft 364 kts 183°
2026-04-28 20:49 42.90119 5.32839 17561 ft 367 kts 183°
2026-04-28 20:49 42.87557 5.32643 18120 ft 370 kts 183°
2026-04-28 20:50 42.84974 5.32462 18668 ft 373 kts 182°
2026-04-28 20:50 42.82371 5.32295 19210 ft 376 kts 182°
2026-04-28 20:50 42.79747 5.32132 19743 ft 379 kts 182°
2026-04-28 20:50 42.77100 5.32008 20265 ft 382 kts 178°
2026-04-28 20:51 42.74464 5.32526 20768 ft 385 kts 164°
2026-04-28 20:51 42.71984 5.33929 21263 ft 388 kts 149°
2026-04-28 20:51 42.69832 5.36151 21742 ft 391 kts 135°
2026-04-28 20:51 42.68656 5.38007 22050 ft 393 kts 125°
2026-04-28 20:52 42.67030 5.42453 22662 ft 396 kts 108°
2026-04-28 20:52 42.66146 5.46003 22943 ft 398 kts 109°
2026-04-28 20:52 42.65256 5.49568 23003 ft 399 kts 109°
2026-04-28 20:52 42.64365 5.53136 23008 ft 399 kts 109°
2026-04-28 20:53 42.62570 5.60268 23010 ft 399 kts 109°
2026-04-28 20:53 42.61667 5.63833 23008 ft 399 kts 109°
2026-04-28 20:53 42.60766 5.67392 23008 ft 399 kts 109°
2026-04-28 20:54 42.59863 5.70953 23009 ft 399 kts 109°
2026-04-28 20:54 42.58959 5.74512 23009 ft 399 kts 109°
2026-04-28 20:54 42.58051 5.78078 23010 ft 399 kts 109°
2026-04-28 20:54 42.57145 5.81637 23009 ft 399 kts 109°
2026-04-28 20:55 42.56240 5.85193 23008 ft 399 kts 109°
2026-04-28 20:55 42.55336 5.88750 23007 ft 399 kts 109°
2026-04-28 20:55 42.54432 5.92306 23007 ft 399 kts 109°
2026-04-28 20:55 42.53524 5.95858 23008 ft 399 kts 109°
2026-04-28 20:56 42.52613 5.99408 23007 ft 399 kts 109°
2026-04-28 20:56 42.51701 6.02957 23008 ft 399 kts 109°
2026-04-28 20:56 42.50787 6.06506 23008 ft 399 kts 109°
2026-04-28 20:56 42.49870 6.10053 23008 ft 399 kts 109°
2026-04-28 20:57 42.48951 6.13607 23008 ft 399 kts 109°
2026-04-28 20:57 42.48037 6.17152 23007 ft 399 kts 109°
2026-04-28 20:57 42.47121 6.20701 23008 ft 399 kts 109°
2026-04-28 20:57 42.46205 6.24245 23007 ft 399 kts 109°
2026-04-28 20:58 42.45287 6.27787 23006 ft 399 kts 109°
2026-04-28 20:58 42.44369 6.31325 23005 ft 399 kts 109°
2026-04-28 20:58 42.43448 6.34867 23007 ft 399 kts 109°
2026-04-28 20:58 42.42526 6.38413 23005 ft 399 kts 109°
2026-04-28 20:59 42.41606 6.41950 23005 ft 399 kts 109°
2026-04-28 20:59 42.40684 6.45491 23005 ft 399 kts 109°
2026-04-28 20:59 42.39759 6.49028 23006 ft 399 kts 109°
2026-04-28 20:59 42.38832 6.52557 23007 ft 399 kts 109°
2026-04-28 21:00 42.37903 6.56093 23006 ft 399 kts 109°
2026-04-28 21:00 42.36987 6.59581 23007 ft 399 kts 109°
2026-04-28 21:00 42.36055 6.63112 23006 ft 399 kts 109°
2026-04-28 21:00 42.35124 6.66639 23006 ft 399 kts 109°
2026-04-28 21:01 42.34194 6.70176 23007 ft 399 kts 109°
2026-04-28 21:01 42.33265 6.73710 23006 ft 399 kts 109°
2026-04-28 21:01 42.32335 6.77238 23007 ft 399 kts 109°
2026-04-28 21:01 42.31400 6.80764 23008 ft 399 kts 110°
2026-04-28 21:02 42.30461 6.84290 23006 ft 399 kts 110°
2026-04-28 21:02 42.29521 6.87812 23006 ft 399 kts 110°
2026-04-28 21:02 42.28581 6.91333 23007 ft 399 kts 110°
2026-04-28 21:02 42.27642 6.94852 23007 ft 399 kts 110°
2026-04-28 21:03 42.26702 6.98372 23006 ft 398 kts 110°
2026-04-28 21:03 42.25761 7.01895 23007 ft 398 kts 110°
2026-04-28 21:03 42.24819 7.05413 23008 ft 398 kts 110°
2026-04-28 21:03 42.23876 7.08927 23006 ft 398 kts 110°
2026-04-28 21:04 42.22932 7.12443 23006 ft 398 kts 110°
2026-04-28 21:04 42.21982 7.15962 23008 ft 398 kts 110°
2026-04-28 21:04 42.21032 7.19477 23008 ft 398 kts 110°
2026-04-28 21:04 42.20084 7.22986 23006 ft 398 kts 110°
2026-04-28 21:05 42.19137 7.26495 23008 ft 398 kts 110°
2026-04-28 21:05 42.18190 7.30008 23007 ft 398 kts 110°
2026-04-28 21:05 42.17242 7.33518 23007 ft 398 kts 110°
2026-04-28 21:05 42.16292 7.37027 23006 ft 398 kts 110°
2026-04-28 21:06 42.15346 7.40506 22814 ft 390 kts 110°
2026-04-28 21:06 42.14417 7.43912 22564 ft 384 kts 110°
2026-04-28 21:06 42.13498 7.47276 22313 ft 382 kts 110°
2026-04-28 21:06 42.12582 7.50625 22063 ft 380 kts 110°
2026-04-28 21:07 42.11670 7.53955 21810 ft 378 kts 110°
2026-04-28 21:07 42.11068 7.56153 21649 ft 377 kts 110°
2026-04-28 21:07 42.09869 7.60536 21314 ft 373 kts 110°
2026-04-28 21:07 42.08976 7.63795 20916 ft 369 kts 110°
2026-04-28 21:08 42.08092 7.67021 20475 ft 366 kts 110°
2026-04-28 21:08 42.07211 7.70227 20019 ft 363 kts 110°
2026-04-28 21:08 42.06336 7.73403 19567 ft 361 kts 110°
2026-04-28 21:08 42.05466 7.76558 19104 ft 359 kts 110°
2026-04-28 21:09 42.04603 7.79693 18644 ft 356 kts 110°
2026-04-28 21:09 42.03744 7.82813 18179 ft 355 kts 110°
2026-04-28 21:09 42.02887 7.85913 17723 ft 353 kts 110°
2026-04-28 21:09 42.02309 7.87999 17415 ft 352 kts 110°
2026-04-28 21:10 42.01179 7.92066 16797 ft 350 kts 110°
2026-04-28 21:10 42.00605 7.94128 16487 ft 348 kts 110°
2026-04-28 21:10 41.99767 7.97136 16036 ft 347 kts 110°
2026-04-28 21:10 41.98900 8.00154 15585 ft 345 kts 114°
2026-04-28 21:11 41.97715 8.02951 15128 ft 343 kts 126°
2026-04-28 21:11 41.96163 8.05368 14701 ft 341 kts 136°
2026-04-28 21:11 41.94362 8.07435 14258 ft 339 kts 140°
2026-04-28 21:11 41.92551 8.09462 13803 ft 338 kts 140°
2026-04-28 21:12 41.90755 8.11476 13370 ft 336 kts 140°
2026-04-28 21:12 41.88968 8.13484 12921 ft 334 kts 140°
2026-04-28 21:12 41.87194 8.15476 12529 ft 330 kts 140°
2026-04-28 21:12 41.85476 8.17407 12384 ft 312 kts 140°
2026-04-28 21:13 41.83877 8.19202 12262 ft 289 kts 140°
2026-04-28 21:13 41.82329 8.20763 12130 ft 268 kts 154°
2026-04-28 21:13 41.80607 8.21353 12010 ft 248 kts 178°
2026-04-28 21:13 41.78936 8.21322 11800 ft 234 kts 182°
2026-04-28 21:14 41.77322 8.21209 11405 ft 231 kts 183°
2026-04-28 21:14 41.75724 8.21084 11119 ft 228 kts 183°
2026-04-28 21:14 41.74147 8.20960 10710 ft 227 kts 183°
2026-04-28 21:14 41.72573 8.20836 10289 ft 226 kts 183°
2026-04-28 21:15 41.71008 8.20713 9882 ft 224 kts 183°
2026-04-28 21:15 41.69455 8.20590 9482 ft 223 kts 183°
2026-04-28 21:15 41.67910 8.20468 9078 ft 222 kts 183°
2026-04-28 21:15 41.66376 8.20347 8675 ft 220 kts 183°
2026-04-28 21:16 41.64886 8.20666 8279 ft 218 kts 153°
2026-04-28 21:16 41.63800 8.22025 7882 ft 216 kts 118°
2026-04-28 21:16 41.63501 8.23957 7476 ft 215 kts 83°
2026-04-28 21:16 41.63897 8.25875 7061 ft 214 kts 70°
2026-04-28 21:17 41.64428 8.27738 6658 ft 214 kts 69°
2026-04-28 21:17 41.64971 8.29583 6260 ft 213 kts 68°
2026-04-28 21:17 41.65512 8.31417 5869 ft 211 kts 68°
2026-04-28 21:17 41.66051 8.33243 5476 ft 210 kts 68°
2026-04-28 21:18 41.66586 8.35056 5084 ft 209 kts 68°
2026-04-28 21:18 41.67118 8.36859 4690 ft 208 kts 68°
2026-04-28 21:18 41.67647 8.38653 4306 ft 207 kts 68°
2026-04-28 21:18 41.68173 8.40437 3923 ft 206 kts 68°
2026-04-28 21:19 41.68696 8.42212 3540 ft 204 kts 68°
2026-04-28 21:19 41.69217 8.43980 3160 ft 203 kts 68°
2026-04-28 21:19 41.69726 8.45710 2987 ft 202 kts 68°
2026-04-28 21:19 41.70243 8.47465 2988 ft 203 kts 68°
2026-04-28 21:20 41.70762 8.49227 2989 ft 203 kts 68°
2026-04-28 21:20 41.71280 8.50989 2989 ft 204 kts 68°
2026-04-28 21:20 41.71799 8.52751 2989 ft 204 kts 68°
2026-04-28 21:20 41.72317 8.54514 2989 ft 204 kts 68°
2026-04-28 21:21 41.72836 8.56277 2989 ft 204 kts 68°
2026-04-28 21:21 41.73354 8.58038 2989 ft 204 kts 68°
2026-04-28 21:21 41.73872 8.59801 2989 ft 204 kts 68°
2026-04-28 21:21 41.74397 8.61587 2989 ft 204 kts 68°
2026-04-28 21:22 41.74915 8.63352 2989 ft 204 kts 68°
2026-04-28 21:22 41.75429 8.65100 2983 ft 196 kts 68°
2026-04-28 21:22 41.75916 8.66757 2985 ft 188 kts 68°
2026-04-28 21:22 41.76383 8.68349 2987 ft 185 kts 68°
2026-04-28 21:23 41.76909 8.69908 2980 ft 184 kts 57°
2026-04-28 21:23 41.77797 8.71125 2863 ft 183 kts 33°
2026-04-28 21:23 41.78934 8.71885 2663 ft 182 kts 25°
2026-04-28 21:23 41.80086 8.72595 2427 ft 182 kts 25°
2026-04-28 21:24 41.81232 8.73304 2190 ft 181 kts 25°
2026-04-28 21:24 41.82374 8.74012 1952 ft 180 kts 25°
2026-04-28 21:24 41.83511 8.74718 1712 ft 180 kts 25°
2026-04-28 21:24 41.84644 8.75422 1468 ft 179 kts 25°
2026-04-28 21:25 41.85747 8.76108 1265 ft 165 kts 25°
2026-04-28 21:25 41.86740 8.76725 1030 ft 150 kts 25°
2026-04-28 21:25 41.87655 8.77295 832 ft 142 kts 25°
2026-04-28 21:25 41.88541 8.77846 652 ft 139 kts 25°
2026-04-28 21:26 41.89414 8.78389 466 ft 138 kts 25°
2026-04-28 21:26 41.90276 8.78943 273 ft 137 kts 26°
2026-04-28 21:26 41.91140 8.79475 112 ft 136 kts 24°
2026-04-28 21:26 41.91978 8.79992 23 ft 115 kts 25°
2026-04-28 21:27 41.92480 8.80303 23 ft 55 kts 25°
2026-04-28 21:27 41.92731 8.80458 24 ft 18 kts 16°
2026-04-28 21:27 41.92779 8.80420 24 ft 11 kts 282°
2026-04-28 21:27 41.92813 8.80301 24 ft 7 kts 292°
2026-04-28 21:28 41.92814 8.80211 21 ft 11 kts 243°
2026-04-28 21:28 41.92739 8.80133 21 ft 16 kts 213°
2026-04-28 21:28 41.92645 8.80068 21 ft 16 kts 204°
2026-04-28 21:28 41.92533 8.79998 21 ft 21 kts 207°
2026-04-28 21:29 41.92400 8.79914 23 ft 12 kts 201°
2026-04-28 21:29 41.92322 8.79869 21 ft 12 kts 204°
2026-04-28 21:29 41.92225 8.79808 21 ft 18 kts 206°
2026-04-28 21:29 41.92120 8.79743 21 ft 13 kts 205°
2026-04-28 21:30 41.92034 8.79691 24 ft 12 kts 205°
2026-04-28 21:30 41.91959 8.79643 21 ft 11 kts 205°
2026-04-28 21:30 41.91935 8.79605 21 ft 7 kts 275°
2026-04-28 21:30 41.91953 8.79578 23 ft 3 kts 334°
2026-04-28 21:31 41.91968 8.79571 21 ft 2 kts 342°
2026-04-28 21:31 41.91971 8.79570 21 ft 0 kts 342°